| time (UTC) | temp C | wind direction | speed KPH | gust KPH | rain 1hr cm | rain 24hr cm | rain mn cm | humidity % | barometer mb |
| 20260510153555 | 20 | 212 | 4.8 | 11.3 | 0.00 | 0.48 | 0.00 | 67 | 1012.5 |
| 20260510153103 | 20 | 160 | 1.6 | 17.7 | 0.00 | 0.48 | 0.00 | 68 | 1012.3 |
| 20260510152554 | 20 | 255 | 4.8 | 20.9 | 0.00 | 0.48 | 0.00 | 68 | 1012.3 |
| 20260510152056 | 19 | 242 | 4.8 | 20.9 | 0.00 | 0.48 | 0.00 | 70 | 1012.4 |
| 20260510151627 | 18 | 277 | 6.4 | 17.7 | 0.00 | 0.48 | 0.00 | 74 | 1012.1 |
| 20260510151050 | 18 | 208 | 6.4 | 16.1 | 0.00 | 0.48 | 0.00 | 77 | 1012.3 |
| 20260510150551 | 17 | 266 | 6.4 | 16.1 | 0.00 | 0.48 | 0.00 | 81 | 1012.3 |
| 20260510150056 | 17 | 208 | 6.4 | 16.1 | 0.00 | 0.48 | 0.00 | 81 | 1012.3 |
| 20260510145550 | 16 | 168 | 8.0 | 16.1 | 0.00 | 0.48 | 0.00 | 81 | 1012.2 |
| 20260510145050 | 16 | 145 | 4.8 | 14.5 | 0.00 | 0.48 | 0.00 | 81 | 1012.1 |
| 20260510144554 | 16 | 198 | 6.4 | 14.5 | 0.00 | 0.48 | 0.00 | 83 | 1012.1 |
| 20260510144051 | 16 | 194 | 4.8 | 12.9 | 0.00 | 0.48 | 0.00 | 85 | 1012.4 |
| 20260510143552 | 16 | 207 | 8.0 | 12.9 | 0.00 | 0.48 | 0.00 | 85 | 1012.4 |
| 20260510143054 | 16 | 193 | 6.4 | 12.9 | 0.00 | 0.48 | 0.00 | 88 | 1012.4 |
| 20260510142550 | 16 | 198 | 4.8 | 12.9 | 0.00 | 0.48 | 0.00 | 89 | 1012.5 |
| 20260510142051 | 15 | 0 | 3.2 | 14.5 | 0.00 | 0.48 | 0.00 | 91 | 1012.3 |
| 20260510141556 | 15 | 190 | 1.6 | 16.1 | 0.00 | 0.48 | 0.00 | 93 | 1012.2 |
| 20260510141050 | 14 | 174 | 4.8 | 16.1 | 0.00 | 0.48 | 0.00 | 93 | 1012.2 |
| 20260510140550 | 14 | 208 | 4.8 | 11.3 | 0.00 | 0.48 | 0.00 | 94 | 1012.2 |
| 20260510140056 | 13 | 226 | 3.2 | 16.1 | 0.00 | 0.48 | 0.00 | 94 | 1012.2 |
| 20260510135551 | 13 | 208 | 4.8 | 16.1 | 0.00 | 0.48 | 0.00 | 94 | 1012.3 |
| 20260510135050 | 12 | 225 | 4.8 | 16.1 | 0.00 | 0.48 | 0.00 | 94 | 1012.3 |
| 20260510134604 | 12 | 263 | 1.6 | 9.7 | 0.00 | 0.48 | 0.00 | 95 | 1012.2 |
| 20260510134049 | 12 | 0 | 4.8 | 14.5 | 0.00 | 0.48 | 0.00 | 95 | 1012.2 |
| 20260510133553 | 12 | 164 | 4.8 | 14.5 | 0.00 | 0.48 | 0.00 | 95 | 1012.2 |
| 20260510133052 | 12 | 163 | 4.8 | 12.9 | 0.00 | 0.48 | 0.00 | 95 | 1012.1 |
| 20260510132551 | 12 | 166 | 3.2 | 11.3 | 0.00 | 0.48 | 0.00 | 95 | 1012.1 |
| 20260510132052 | 12 | 193 | 3.2 | 11.3 | 0.00 | 0.48 | 0.00 | 95 | 1012.2 |
| 20260510131554 | 11 | 196 | 4.8 | 11.3 | 0.00 | 0.48 | 0.00 | 95 | 1012.2 |
| 20260510131050 | 11 | 190 | 3.2 | 11.3 | 0.00 | 0.48 | 0.00 | 95 | 1012.2 |
| 20260510130551 | 11 | 200 | 1.6 | 9.7 | 0.00 | 0.48 | 0.00 | 95 | 1012.2 |
| 20260510130054 | 11 | 242 | 3.2 | 9.7 | 0.00 | 0.48 | 0.00 | 95 | 1012.2 |
| 20260510125551 | 11 | 218 | 0.0 | 6.4 | 0.00 | 0.48 | 0.00 | 95 | 1012.2 |
| 20260510125051 | 11 | 215 | 1.6 | 9.7 | 0.00 | 0.48 | 0.00 | 95 | 1012.2 |
| 20260510124601 | 11 | 0 | 1.6 | 9.7 | 0.00 | 0.48 | 0.00 | 95 | 1012.2 |
| 20260510124050 | 11 | 0 | 1.6 | 6.4 | 0.00 | 0.48 | 0.00 | 95 | 1012.2 |
| 20260510123551 | 11 | 227 | 1.6 | 6.4 | 0.00 | 0.48 | 0.00 | 95 | 1012.2 |
| 20260510123102 | 11 | 181 | 1.6 | 9.7 | 0.00 | 0.48 | 0.00 | 95 | 1012.1 |
| 20260510122550 | 11 | 221 | 1.6 | 9.7 | 0.00 | 0.48 | 0.00 | 95 | 1012.0 |
| 20260510122051 | 11 | 0 | 3.2 | 8.0 | 0.00 | 0.48 | 0.00 | 95 | 1012.0 |
| 20260510121554 | 11 | 207 | 1.6 | 4.8 | 0.00 | 0.48 | 0.00 | 95 | 1012.0 |
| 20260510121054 | 11 | 285 | 0.0 | 4.8 | 0.00 | 0.48 | 0.00 | 95 | 1011.9 |
| 20260510120554 | 11 | 277 | 0.0 | 4.8 | 0.00 | 0.48 | 0.00 | 95 | 1011.8 |
| 20260510115554 | 10 | 0 | 0.0 | 3.2 | 0.00 | 0.48 | 0.00 | 95 | 1011.6 |
| 20260510115054 | 10 | 0 | 0.0 | 4.8 | 0.00 | 0.48 | 0.00 | 95 | 1011.6 |
| 20260510114553 | 10 | 347 | 0.0 | 4.8 | 0.00 | 0.48 | 0.00 | 95 | 1011.5 |
| 20260510114054 | 10 | 320 | 0.0 | 1.6 | 0.00 | 0.48 | 0.00 | 95 | 1011.4 |
| 20260510113553 | 10 | 0 | 0.0 | 3.2 | 0.00 | 0.48 | 0.00 | 95 | 1011.4 |
| 20260510113054 | 10 | 0 | 0.0 | 3.2 | 0.00 | 0.48 | 0.00 | 95 | 1011.3 |
| 20260510112554 | 10 | 254 | 0.0 | 1.6 | 0.00 | 0.48 | 0.00 | 95 | 1011.2 |
| 20260510112054 | 10 | 0 | 0.0 | 3.2 | 0.00 | 0.48 | 0.00 | 95 | 1011.3 |
| 20260510111553 | 10 | 0 | 0.0 | 3.2 | 0.00 | 0.48 | 0.00 | 95 | 1011.2 |
| 20260510111050 | 10 | 0 | 0.0 | 3.2 | 0.00 | 0.48 | 0.00 | 95 | 1011.2 |
| 20260510110554 | 10 | 0 | 0.0 | 1.6 | 0.00 | 0.48 | 0.00 | 95 | 1011.1 |
| 20260510110058 | 10 | 0 | 0.0 | 4.8 | 0.00 | 0.48 | 0.00 | 95 | 1011.0 |
| 20260510105557 | 10 | 0 | 1.6 | 6.4 | 0.00 | 0.48 | 0.00 | 95 | 1011.2 |
| 20260510105054 | 10 | 0 | 0.0 | 8.0 | 0.00 | 0.48 | 0.00 | 95 | 1010.9 |
| 20260510104554 | 10 | 166 | 3.2 | 8.0 | 0.00 | 0.48 | 0.00 | 95 | 1010.8 |
| 20260510104051 | 10 | 153 | 4.8 | 8.0 | 0.00 | 0.48 | 0.00 | 95 | 1010.8 |
| 20260510103555 | 10 | 188 | 3.2 | 8.0 | 0.00 | 0.48 | 0.00 | 95 | 1010.9 |
| 20260510103101 | 10 | 209 | 1.6 | 6.4 | 0.00 | 0.48 | 0.00 | 95 | 1010.9 |
| 20260510102555 | 10 | 0 | 1.6 | 4.8 | 0.00 | 0.48 | 0.00 | 94 | 1011.0 |
| 20260510102053 | 10 | 189 | 0.0 | 3.2 | 0.00 | 0.48 | 0.00 | 95 | 1010.8 |
| 20260510101603 | 10 | 0 | 0.0 | 1.6 | 0.00 | 0.48 | 0.00 | 95 | 1010.6 |
| 20260510101053 | 10 | 0 | 0.0 | 1.6 | 0.00 | 0.48 | 0.00 | 95 | 1010.4 |
| 20260510100554 | 10 | 0 | 0.0 | 3.2 | 0.00 | 0.48 | 0.00 | 95 | 1010.4 |
| 20260510100055 | 10 | 0 | 0.0 | 3.2 | 0.00 | 0.48 | 0.00 | 95 | 1010.4 |
| 20260510095554 | 10 | 94 | 0.0 | 3.2 | 0.00 | 0.48 | 0.00 | 95 | 1010.3 |
| 20260510095054 | 10 | 0 | 0.0 | 3.2 | 0.00 | 0.48 | 0.00 | 95 | 1010.3 |
| 20260510094553 | 10 | 94 | 1.6 | 4.8 | 0.00 | 0.48 | 0.00 | 94 | 1010.3 |
| 20260510094054 | 10 | 153 | 0.0 | 6.4 | 0.00 | 0.48 | 0.00 | 95 | 1010.2 |
| 20260510093554 | 10 | 153 | 3.2 | 12.9 | 0.00 | 0.48 | 0.00 | 94 | 1010.3 |
| 20260510093057 | 10 | 156 | 4.8 | 12.9 | 0.00 | 0.48 | 0.00 | 94 | 1010.3 |
| 20260510092555 | 10 | 134 | 1.6 | 4.8 | 0.00 | 0.48 | 0.00 | 94 | 1010.3 |
| 20260510092055 | 10 | 0 | 1.6 | 4.8 | 0.00 | 0.48 | 0.00 | 94 | 1010.3 |
| 20260510091557 | 10 | 134 | 1.6 | 4.8 | 0.00 | 0.48 | 0.00 | 94 | 1010.3 |
| 20260510091051 | 10 | 0 | 0.0 | 8.0 | 0.00 | 0.48 | 0.00 | 94 | 1010.3 |
| 20260510090555 | 10 | 134 | 0.0 | 11.3 | 0.00 | 0.48 | 0.00 | 94 | 1010.3 |
| 20260510090053 | 10 | 133 | 4.8 | 11.3 | 0.00 | 0.48 | 0.00 | 94 | 1010.2 |
| 20260510085551 | 10 | 125 | 3.2 | 11.3 | 0.00 | 0.48 | 0.00 | 94 | 1010.2 |
| 20260510085053 | 10 | 126 | 4.8 | 11.3 | 0.00 | 0.48 | 0.00 | 94 | 1010.2 |
| 20260510084555 | 10 | 144 | 4.8 | 11.3 | 0.00 | 0.48 | 0.00 | 94 | 1010.3 |
| 20260510084054 | 9 | 152 | 4.8 | 12.9 | 0.00 | 0.48 | 0.00 | 94 | 1010.3 |
| 20260510083553 | 9 | 116 | 3.2 | 12.9 | 0.00 | 0.48 | 0.00 | 94 | 1010.3 |
| 20260510083054 | 9 | 137 | 6.4 | 11.3 | 0.00 | 0.48 | 0.00 | 94 | 1010.3 |
| 20260510082553 | 9 | 131 | 6.4 | 11.3 | 0.00 | 0.48 | 0.00 | 94 | 1010.4 |
| 20260510082053 | 9 | 133 | 6.4 | 11.3 | 0.00 | 0.48 | 0.00 | 94 | 1010.5 |
| 20260510081600 | 9 | 133 | 4.8 | 11.3 | 0.00 | 0.48 | 0.00 | 94 | 1010.5 |
| 20260510081054 | 9 | 153 | 3.2 | 11.3 | 0.00 | 0.48 | 0.00 | 94 | 1010.5 |
| 20260510080554 | 9 | 121 | 1.6 | 4.8 | 0.00 | 0.48 | 0.00 | 94 | 1010.3 |
| 20260510080053 | 9 | 56 | 0.0 | 3.2 | 0.00 | 0.48 | 0.00 | 94 | 1010.4 |
| 20260510075554 | 9 | 0 | 0.0 | 1.6 | 0.00 | 0.48 | 0.00 | 94 | 1010.5 |
| 20260510075058 | 8 | 357 | 0.0 | 1.6 | 0.00 | 0.48 | 0.00 | 94 | 1010.7 |
| 20260510074553 | 8 | 357 | 0.0 | 3.2 | 0.00 | 0.48 | 0.00 | 94 | 1010.8 |
| 20260510074053 | 8 | 357 | 0.0 | 4.8 | 0.00 | 0.48 | 0.00 | 94 | 1010.7 |
| 20260510073554 | 8 | 358 | 1.6 | 4.8 | 0.00 | 0.48 | 0.00 | 94 | 1010.8 |
| 20260510073103 | 8 | 359 | 1.6 | 4.8 | 0.00 | 0.48 | 0.00 | 94 | 1010.8 |
| 20260510072554 | 8 | 316 | 1.6 | 4.8 | 0.00 | 0.48 | 0.00 | 94 | 1010.8 |
| 20260510072057 | 8 | 0 | 1.6 | 6.4 | 0.00 | 0.48 | 0.00 | 94 | 1010.8 |
| 20260510071557 | 9 | 318 | 1.6 | 14.5 | 0.00 | 0.48 | 0.00 | 93 | 1010.8 |
| 20260510071053 | 9 | 321 | 0.0 | 14.5 | 0.00 | 0.48 | 0.00 | 93 | 1010.9 |
| 20260510070550 | 9 | 266 | 6.4 | 14.5 | 0.00 | 0.48 | 0.00 | 94 | 1011.0 |
| 20260510070054 | 9 | 132 | 0.0 | 4.8 | 0.00 | 0.48 | 0.00 | 94 | 1010.3 |
| 20260510065554 | 9 | 132 | 0.0 | 6.4 | 0.00 | 0.48 | 0.00 | 94 | 1010.1 |
| 20260510065055 | 10 | 0 | 1.6 | 6.4 | 0.00 | 0.48 | 0.00 | 94 | 1010.0 |
| 20260510064554 | 10 | 133 | 3.2 | 6.4 | 0.00 | 0.48 | 0.00 | 94 | 1010.1 |
| 20260510064054 | 9 | 151 | 1.6 | 6.4 | 0.00 | 0.48 | 0.00 | 94 | 1010.2 |
| 20260510063555 | 9 | 127 | 0.0 | 4.8 | 0.00 | 0.48 | 0.00 | 94 | 1010.1 |
| 20260510063055 | 9 | 319 | 0.0 | 1.6 | 0.00 | 0.48 | 0.00 | 94 | 1010.2 |
| 20260510062554 | 9 | 319 | 0.0 | 1.6 | 0.00 | 0.48 | 0.00 | 94 | 1010.3 |
| 20260510062054 | 9 | 0 | 0.0 | 3.2 | 0.00 | 0.48 | 0.00 | 94 | 1010.3 |
| 20260510061602 | 9 | 0 | 0.0 | 3.2 | 0.00 | 0.48 | 0.00 | 94 | 1010.4 |
| 20260510061057 | 9 | 0 | 0.0 | 3.2 | 0.00 | 0.48 | 0.00 | 94 | 1010.3 |
| 20260510060554 | 9 | 0 | 0.0 | 3.2 | 0.00 | 0.48 | 0.00 | 94 | 1010.3 |
| 20260510060054 | 9 | 0 | 0.0 | 3.2 | 0.00 | 0.48 | 0.00 | 94 | 1010.4 |
| 20260510055554 | 9 | 319 | 1.6 | 3.2 | 0.00 | 0.48 | 0.00 | 94 | 1010.6 |
| 20260510055054 | 9 | 319 | 0.0 | 3.2 | 0.00 | 0.48 | 0.00 | 93 | 1010.5 |
| 20260510054601 | 9 | 319 | 1.6 | 4.8 | 0.00 | 0.48 | 0.00 | 93 | 1010.4 |
| 20260510054050 | 9 | 321 | 1.6 | 4.8 | 0.00 | 0.48 | 0.00 | 93 | 1010.5 |
| 20260510053551 | 9 | 316 | 1.6 | 4.8 | 0.00 | 0.48 | 0.00 | 93 | 1010.4 |
| 20260510053054 | 9 | 317 | 1.6 | 4.8 | 0.00 | 0.48 | 0.00 | 93 | 1010.3 |
| 20260510052550 | 9 | 318 | 1.6 | 4.8 | 0.00 | 0.48 | 0.00 | 93 | 1010.1 |
| 20260510052050 | 9 | 308 | 1.6 | 3.2 | 0.00 | 0.48 | 0.00 | 93 | 1010.1 |
| 20260510051551 | 9 | 201 | 0.0 | 3.2 | 0.00 | 0.48 | 0.00 | 93 | 1010.0 |
| 20260510051055 | 9 | 0 | 0.0 | 1.6 | 0.00 | 0.48 | 0.00 | 93 | 1010.1 |
| 20260510050550 | 10 | 0 | 0.0 | 1.6 | 0.00 | 0.48 | 0.00 | 93 | 1010.0 |
| 20260510050054 | 10 | 0 | 0.0 | 1.6 | 0.00 | 0.48 | 0.00 | 93 | 1010.1 |
| 20260510045550 | 10 | 0 | 0.0 | 1.6 | 0.00 | 0.48 | 0.00 | 93 | 1010.1 |
| 20260510045050 | 10 | 0 | 0.0 | 1.6 | 0.00 | 0.48 | 0.00 | 93 | 1010.1 |
| 20260510044553 | 10 | 0 | 0.0 | 1.6 | 0.00 | 0.48 | 0.00 | 93 | 1010.1 |
| 20260510044050 | 10 | 0 | 0.0 | 1.6 | 0.00 | 0.48 | 0.00 | 93 | 1010.1 |
| 20260510043550 | 10 | 0 | 0.0 | 1.6 | 0.00 | 0.48 | 0.00 | 93 | 1010.1 |
| 20260510043054 | 10 | 0 | 0.0 | 3.2 | 0.00 | 0.48 | 0.00 | 93 | 1010.1 |
| 20260510042553 | 10 | 0 | 0.0 | 3.2 | 0.00 | 0.48 | 0.00 | 93 | 1010.2 |
| 20260510042051 | 10 | 0 | 0.0 | 3.2 | 0.00 | 0.48 | 0.00 | 93 | 1010.3 |
| 20260510041629 | 10 | 0 | 0.0 | 3.2 | 0.00 | 0.48 | 0.00 | 93 | 1010.2 |
| 20260510041051 | 10 | 0 | 0.0 | 3.2 | 0.00 | 0.48 | 0.00 | 93 | 1010.2 |
| 20260510040553 | 10 | 0 | 0.0 | 3.2 | 0.00 | 0.48 | 0.00 | 93 | 1010.1 |
| 20260510040053 | 10 | 201 | 0.0 | 3.2 | 0.00 | 0.48 | 0.00 | 93 | 1010.3 |
| 20260510035550 | 10 | 201 | 0.0 | 3.2 | 0.00 | 0.48 | 0.48 | 93 | 1010.3 |
| 20260510035050 | 10 | 0 | 0.0 | 3.2 | 0.00 | 0.48 | 0.48 | 93 | 1010.2 |
| 20260510034558 | 10 | 201 | 1.6 | 3.2 | 0.00 | 0.48 | 0.48 | 93 | 1010.2 |
| 20260510034055 | 10 | 0 | 0.0 | 4.8 | 0.00 | 0.48 | 0.48 | 93 | 1010.1 |
| 20260510033550 | 10 | 0 | 1.6 | 4.8 | 0.00 | 0.48 | 0.48 | 93 | 1010.1 |
| 20260510033106 | 10 | 0 | 0.0 | 1.6 | 0.00 | 0.48 | 0.48 | 93 | 1010.1 |
| 20260510032550 | 10 | 0 | 0.0 | 3.2 | 0.00 | 0.48 | 0.48 | 93 | 1010.0 |
| 20260510032051 | 10 | 0 | 0.0 | 3.2 | 0.00 | 0.48 | 0.48 | 93 | 1009.9 |
| 20260510031555 | 10 | 201 | 0.0 | 3.2 | 0.00 | 0.48 | 0.48 | 93 | 1009.9 |
| 20260510031053 | 10 | 201 | 0.0 | 3.2 | 0.00 | 0.48 | 0.48 | 93 | 1010.0 |
| 20260510030552 | 10 | 0 | 0.0 | 4.8 | 0.00 | 0.48 | 0.48 | 93 | 1010.0 |
| 20260510030054 | 10 | 201 | 1.6 | 8.0 | 0.00 | 0.48 | 0.48 | 93 | 1010.1 |
| 20260510025551 | 10 | 201 | 3.2 | 8.0 | 0.00 | 0.48 | 0.48 | 93 | 1010.0 |
| 20260510025054 | 10 | 195 | 3.2 | 8.0 | 0.00 | 0.48 | 0.48 | 93 | 1010.1 |
| 20260510024608 | 10 | 170 | 3.2 | 9.7 | 0.00 | 0.48 | 0.48 | 93 | 1010.0 |
| 20260510024053 | 11 | 170 | 4.8 | 9.7 | 0.00 | 0.48 | 0.48 | 93 | 1010.0 |
| 20260510023550 | 11 | 171 | 4.8 | 12.9 | 0.00 | 0.48 | 0.48 | 93 | 1009.9 |
| 20260510023057 | 11 | 164 | 4.8 | 12.9 | 0.00 | 0.48 | 0.48 | 93 | 1009.9 |
| 20260510022551 | 11 | 164 | 6.4 | 11.3 | 0.00 | 0.48 | 0.48 | 93 | 1009.9 |
| 20260510022053 | 11 | 167 | 4.8 | 9.7 | 0.00 | 0.48 | 0.48 | 92 | 1010.0 |
| 20260510021555 | 11 | 158 | 4.8 | 8.0 | 0.00 | 0.48 | 0.48 | 92 | 1009.9 |
| 20260510021053 | 11 | 132 | 1.6 | 8.0 | 0.00 | 0.48 | 0.48 | 92 | 1009.8 |
| 20260510020554 | 11 | 175 | 1.6 | 8.0 | 0.00 | 0.48 | 0.48 | 92 | 1009.9 |
| 20260510020056 | 11 | 143 | 3.2 | 8.0 | 0.00 | 0.48 | 0.48 | 92 | 1009.8 |
| 20260510015555 | 11 | 163 | 3.2 | 6.4 | 0.00 | 0.48 | 0.48 | 92 | 1009.9 |
| 20260510015054 | 11 | 155 | 3.2 | 6.4 | 0.00 | 0.48 | 0.48 | 92 | 1009.9 |
| 20260510014614 | 11 | 148 | 4.8 | 8.0 | 0.00 | 0.48 | 0.48 | 92 | 1009.9 |
| 20260510014054 | 11 | 148 | 3.2 | 8.0 | 0.00 | 0.48 | 0.48 | 92 | 1009.8 |
| 20260510013554 | 11 | 153 | 4.8 | 9.7 | 0.00 | 0.48 | 0.48 | 92 | 1009.8 |
| 20260510013103 | 11 | 156 | 4.8 | 9.7 | 0.00 | 0.48 | 0.48 | 91 | 1009.9 |
| 20260510012555 | 11 | 151 | 6.4 | 8.0 | 0.00 | 0.48 | 0.48 | 91 | 1009.7 |
| 20260510012054 | 11 | 162 | 4.8 | 9.7 | 0.00 | 0.48 | 0.48 | 91 | 1009.7 |
| 20260510011556 | 11 | 151 | 4.8 | 9.7 | 0.00 | 0.48 | 0.48 | 91 | 1009.6 |
| 20260510011055 | 11 | 146 | 4.8 | 9.7 | 0.00 | 0.48 | 0.48 | 90 | 1009.6 |
| 20260510010553 | 11 | 143 | 4.8 | 6.4 | 0.00 | 0.48 | 0.48 | 90 | 1009.6 |
| 20260510010053 | 11 | 151 | 3.2 | 6.4 | 0.00 | 0.48 | 0.48 | 90 | 1009.5 |
| 20260510005555 | 11 | 137 | 3.2 | 6.4 | 0.00 | 0.48 | 0.48 | 89 | 1009.4 |
| 20260510005054 | 11 | 114 | 3.2 | 6.4 | 0.00 | 0.48 | 0.48 | 89 | 1009.3 |
| 20260510004600 | 11 | 132 | 1.6 | 4.8 | 0.00 | 0.48 | 0.48 | 89 | 1009.4 |
| 20260510004054 | 11 | 132 | 3.2 | 6.4 | 0.00 | 0.48 | 0.48 | 89 | 1009.4 |
| 20260510003554 | 12 | 132 | 3.2 | 9.7 | 0.00 | 0.48 | 0.48 | 88 | 1009.3 |
| 20260510003053 | 12 | 133 | 3.2 | 9.7 | 0.00 | 0.48 | 0.48 | 88 | 1009.2 |
| 20260510002558 | 12 | 135 | 3.2 | 6.4 | 0.00 | 0.48 | 0.48 | 87 | 1009.1 |
| 20260510002054 | 12 | 118 | 1.6 | 4.8 | 0.00 | 0.48 | 0.48 | 86 | 1009.1 |
| 20260510001554 | 12 | 165 | 1.6 | 4.8 | 0.00 | 0.48 | 0.48 | 86 | 1009.1 |
| 20260510001054 | 12 | 165 | 0.0 | 3.2 | 0.00 | 0.48 | 0.48 | 86 | 1009.0 |
| 20260510000556 | 12 | 0 | 1.6 | 4.8 | 0.00 | 0.48 | 0.48 | 86 | 1008.9 |
| 20260510000054 | 12 | 165 | 1.6 | 6.4 | 0.00 | 0.48 | 0.48 | 86 | 1008.9 |
| 20260509235557 | 12 | 165 | 3.2 | 6.4 | 0.00 | 0.48 | 0.48 | 86 | 1008.9 |
| 20260509235057 | 12 | 165 | 3.2 | 6.4 | 0.00 | 0.48 | 0.48 | 86 | 1008.9 |
| 20260509234554 | 12 | 165 | 1.6 | 6.4 | 0.00 | 0.48 | 0.48 | 86 | 1008.8 |
| 20260509234054 | 12 | 165 | 3.2 | 6.4 | 0.00 | 0.48 | 0.48 | 85 | 1008.9 |
| 20260509233553 | 12 | 165 | 1.6 | 4.8 | 0.00 | 0.48 | 0.48 | 85 | 1008.9 |
| 20260509233055 | 12 | 165 | 1.6 | 8.0 | 0.00 | 0.48 | 0.48 | 85 | 1008.8 |
| 20260509232553 | 12 | 165 | 3.2 | 9.7 | 0.00 | 0.48 | 0.48 | 85 | 1008.8 |
| 20260509232055 | 12 | 170 | 4.8 | 9.7 | 0.00 | 0.48 | 0.48 | 85 | 1008.6 |
| 20260509231606 | 12 | 166 | 3.2 | 8.0 | 0.00 | 0.48 | 0.48 | 85 | 1008.7 |
| 20260509231053 | 12 | 195 | 3.2 | 8.0 | 0.00 | 0.48 | 0.48 | 85 | 1008.7 |
| 20260509230557 | 12 | 224 | 0.0 | 11.3 | 0.00 | 0.48 | 0.48 | 85 | 1008.6 |
| 20260509230054 | 12 | 193 | 4.8 | 11.3 | 0.00 | 0.48 | 0.48 | 85 | 1008.7 |
| 20260509225555 | 12 | 179 | 3.2 | 11.3 | 0.00 | 0.48 | 0.48 | 85 | 1008.6 |
| 20260509225054 | 12 | 212 | 3.2 | 11.3 | 0.00 | 0.48 | 0.48 | 85 | 1008.7 |
| 20260509224555 | 12 | 171 | 6.4 | 11.3 | 0.00 | 0.48 | 0.48 | 85 | 1008.6 |
| 20260509224051 | 12 | 156 | 1.6 | 8.0 | 0.00 | 0.48 | 0.48 | 86 | 1008.6 |
| 20260509223554 | 12 | 215 | 3.2 | 11.3 | 0.00 | 0.48 | 0.48 | 85 | 1008.7 |
| 20260509223056 | 12 | 166 | 4.8 | 12.9 | 0.00 | 0.48 | 0.48 | 85 | 1008.7 |
| 20260509222557 | 12 | 210 | 6.4 | 12.9 | 0.00 | 0.48 | 0.48 | 85 | 1008.7 |
| 20260509222054 | 12 | 173 | 6.4 | 11.3 | 0.00 | 0.48 | 0.48 | 85 | 1008.7 |
| 20260509221557 | 12 | 171 | 3.2 | 11.3 | 0.00 | 0.48 | 0.48 | 86 | 1008.8 |
| 20260509221055 | 12 | 218 | 6.4 | 11.3 | 0.00 | 0.48 | 0.48 | 85 | 1008.9 |
| 20260509220555 | 12 | 207 | 6.4 | 11.3 | 0.00 | 0.48 | 0.48 | 85 | 1008.8 |
| 20260509220058 | 12 | 216 | 4.8 | 9.7 | 0.00 | 0.48 | 0.48 | 85 | 1008.8 |
| 20260509215556 | 12 | 194 | 3.2 | 9.7 | 0.00 | 0.48 | 0.48 | 85 | 1008.8 |
| 20260509215054 | 12 | 205 | 1.6 | 11.3 | 0.00 | 0.48 | 0.48 | 85 | 1008.9 |
| 20260509214553 | 12 | 0 | 1.6 | 12.9 | 0.00 | 0.48 | 0.48 | 85 | 1008.8 |
| 20260509214053 | 12 | 215 | 1.6 | 12.9 | 0.00 | 0.48 | 0.48 | 86 | 1008.7 |
| 20260509213554 | 12 | 168 | 4.8 | 14.5 | 0.00 | 0.48 | 0.48 | 86 | 1008.6 |
| 20260509213053 | 12 | 160 | 4.8 | 14.5 | 0.00 | 0.48 | 0.48 | 87 | 1008.7 |
| 20260509212554 | 12 | 170 | 6.4 | 12.9 | 0.00 | 0.48 | 0.48 | 86 | 1008.8 |
| 20260509212055 | 12 | 186 | 4.8 | 11.3 | 0.00 | 0.48 | 0.48 | 87 | 1008.9 |
| 20260509211600 | 12 | 172 | 4.8 | 11.3 | 0.00 | 0.48 | 0.48 | 87 | 1008.8 |
| 20260509211054 | 12 | 218 | 1.6 | 9.7 | 0.00 | 0.48 | 0.48 | 88 | 1009.0 |
| 20260509210555 | 12 | 204 | 3.2 | 8.0 | 0.00 | 0.48 | 0.48 | 88 | 1009.2 |
| 20260509210106 | 12 | 0 | 0.0 | 3.2 | 0.00 | 0.48 | 0.48 | 89 | 1009.2 |
| 20260509205553 | 12 | 0 | 0.0 | 4.8 | 0.00 | 0.48 | 0.48 | 89 | 1009.1 |
| 20260509205054 | 12 | 0 | 1.6 | 4.8 | 0.00 | 0.48 | 0.48 | 89 | 1009.2 |
| 20260509204554 | 12 | 183 | 1.6 | 4.8 | 0.00 | 0.48 | 0.48 | 89 | 1009.4 |
| 20260509204054 | 12 | 237 | 0.0 | 6.4 | 0.00 | 0.48 | 0.48 | 89 | 1009.4 |
| 20260509203556 | 12 | 248 | 1.6 | 6.4 | 0.03 | 0.48 | 0.48 | 90 | 1009.3 |
| 20260509203053 | 12 | 274 | 0.0 | 4.8 | 0.03 | 0.48 | 0.48 | 90 | 1009.3 |
| 20260509202553 | 12 | 292 | 0.0 | 4.8 | 0.03 | 0.48 | 0.48 | 90 | 1009.3 |
| 20260509202052 | 12 | 214 | 0.0 | 4.8 | 0.03 | 0.48 | 0.48 | 90 | 1009.3 |
| 20260509201553 | 12 | 290 | 0.0 | 6.4 | 0.03 | 0.48 | 0.48 | 90 | 1009.2 |
| 20260509201052 | 12 | 0 | 0.0 | 6.4 | 0.05 | 0.48 | 0.48 | 90 | 1009.3 |
| 20260509200553 | 11 | 0 | 3.2 | 6.4 | 0.08 | 0.48 | 0.48 | 90 | 1009.2 |
| 20260509200055 | 11 | 163 | 3.2 | 6.4 | 0.08 | 0.48 | 0.48 | 90 | 1009.2 |
| 20260509195554 | 11 | 168 | 0.0 | 9.7 | 0.08 | 0.48 | 0.48 | 91 | 1009.3 |
| 20260509195053 | 11 | 0 | 3.2 | 11.3 | 0.10 | 0.48 | 0.48 | 91 | 1009.5 |
| 20260509194555 | 11 | 220 | 4.8 | 11.3 | 0.13 | 0.48 | 0.48 | 91 | 1009.5 |
| 20260509194052 | 11 | 158 | 6.4 | 11.3 | 0.13 | 0.48 | 0.48 | 90 | 1009.6 |
| 20260509193552 | 11 | 193 | 1.6 | 9.7 | 0.13 | 0.46 | 0.46 | 90 | 1009.8 |
| 20260509193054 | 11 | 170 | 4.8 | 9.7 | 0.13 | 0.46 | 0.46 | 90 | 1009.9 |
| 20260509192555 | 11 | 157 | 3.2 | 6.4 | 0.13 | 0.46 | 0.46 | 90 | 1009.8 |
| 20260509192052 | 11 | 174 | 1.6 | 4.8 | 0.13 | 0.46 | 0.46 | 89 | 1010.1 |
| 20260509191557 | 11 | 0 | 0.0 | 6.4 | 0.15 | 0.46 | 0.46 | 89 | 1010.3 |
| 20260509191053 | 11 | 263 | 1.6 | 8.0 | 0.13 | 0.43 | 0.43 | 89 | 1010.3 |
| 20260509190551 | 11 | 195 | 1.6 | 8.0 | 0.10 | 0.41 | 0.41 | 89 | 1010.6 |
| 20260509185552 | 11 | 0 | 1.6 | 14.5 | 0.10 | 0.41 | 0.41 | 89 | 1010.3 |
| 20260509185052 | 11 | 212 | 4.8 | 14.5 | 0.10 | 0.38 | 0.38 | 88 | 1010.5 |
| 20260509184601 | 11 | 185 | 3.2 | 9.7 | 0.08 | 0.36 | 0.36 | 88 | 1010.6 |
| 20260509184051 | 12 | 206 | 1.6 | 4.8 | 0.10 | 0.36 | 0.36 | 88 | 1010.5 |
| 20260509183552 | 12 | 0 | 0.0 | 4.8 | 0.08 | 0.33 | 0.33 | 88 | 1010.4 |
| 20260509183059 | 12 | 0 | 0.0 | 4.8 | 0.10 | 0.33 | 0.33 | 88 | 1010.6 |
| 20260509182552 | 12 | 236 | 1.6 | 4.8 | 0.13 | 0.33 | 0.33 | 88 | 1010.5 |
| 20260509182051 | 12 | 256 | 0.0 | 3.2 | 0.18 | 0.33 | 0.33 | 88 | 1010.6 |
| 20260509181556 | 12 | 0 | 0.0 | 6.4 | 0.18 | 0.30 | 0.30 | 88 | 1010.4 |
| 20260509181051 | 12 | 277 | 0.0 | 6.4 | 0.20 | 0.30 | 0.30 | 88 | 1010.5 |
| 20260509180553 | 12 | 0 | 0.0 | 4.8 | 0.23 | 0.30 | 0.30 | 88 | 1010.5 |
| 20260509180058 | 12 | 0 | 0.0 | 4.8 | 0.25 | 0.30 | 0.30 | 88 | 1010.4 |
| 20260509175552 | 12 | 0 | 0.0 | 4.8 | 0.25 | 0.30 | 0.30 | 88 | 1010.4 |
| 20260509175050 | 12 | 0 | 0.0 | 6.4 | 0.25 | 0.28 | 0.28 | 88 | 1010.4 |
| 20260509174556 | 12 | 258 | 0.0 | 6.4 | 0.25 | 0.28 | 0.28 | 87 | 1010.5 |
| 20260509174051 | 12 | 251 | 0.0 | 6.4 | 0.23 | 0.25 | 0.25 | 87 | 1010.5 |
| 20260509173551 | 12 | 281 | 1.6 | 9.7 | 0.25 | 0.25 | 0.25 | 87 | 1010.4 |
| 20260509173119 | 12 | 260 | 3.2 | 9.7 | 0.23 | 0.23 | 0.23 | 86 | 1010.3 |
| 20260509172552 | 12 | 257 | 1.6 | 8.0 | 0.20 | 0.20 | 0.20 | 87 | 1010.2 |
| 20260509172051 | 12 | 222 | 0.0 | 9.7 | 0.15 | 0.15 | 0.15 | 86 | 1010.4 |
| 20260509171602 | 12 | 0 | 3.2 | 9.7 | 0.13 | 0.13 | 0.13 | 86 | 1010.6 |
| 20260509171051 | 12 | 0 | 1.6 | 8.0 | 0.10 | 0.10 | 0.10 | 86 | 1010.6 |
| 20260509170553 | 12 | 217 | 3.2 | 9.7 | 0.08 | 0.08 | 0.08 | 86 | 1010.7 |
| 20260509170100 | 13 | 279 | 1.6 | 9.7 | 0.05 | 0.05 | 0.05 | 86 | 1010.8 |
| 20260509165552 | 13 | 214 | 1.6 | 11.3 | 0.05 | 0.05 | 0.05 | 85 | 1010.6 |
| 20260509165053 | 13 | 246 | 1.6 | 11.3 | 0.03 | 0.03 | 0.03 | 84 | 1010.6 |
| 20260509164601 | 13 | 196 | 3.2 | 11.3 | 0.03 | 0.03 | 0.03 | 84 | 1010.7 |
| 20260509164053 | 13 | 210 | 3.2 | 17.7 | 0.03 | 0.03 | 0.03 | 83 | 1010.6 |
| 20260509163552 | 13 | 202 | 8.0 | 19.3 | 0.00 | 0.00 | 0.00 | 82 | 1010.6 |
| 20260509163058 | 13 | 187 | 8.0 | 19.3 | 0.00 | 0.00 | 0.00 | 82 | 1010.7 |
| 20260509162552 | 13 | 225 | 8.0 | 16.1 | 0.00 | 0.00 | 0.00 | 81 | 1010.6 |
| 20260509162055 | 13 | 204 | 8.0 | 16.1 | 0.00 | 0.00 | 0.00 | 81 | 1010.6 |
| 20260509161555 | 13 | 195 | 6.4 | 17.7 | 0.00 | 0.00 | 0.00 | 81 | 1010.6 |
| 20260509161051 | 13 | 191 | 8.0 | 17.7 | 0.00 | 0.00 | 0.00 | 81 | 1010.7 |
| 20260509160552 | 13 | 202 | 4.8 | 12.9 | 0.00 | 0.00 | 0.00 | 81 | 1010.8 |
| 20260509160054 | 13 | 171 | 6.4 | 12.9 | 0.00 | 0.00 | 0.00 | 81 | 1010.9 |
| 20260509155551 | 13 | 208 | 1.6 | 14.5 | 0.00 | 0.00 | 0.00 | 82 | 1010.9 |
| 20260509155052 | 12 | 210 | 6.4 | 14.5 | 0.00 | 0.00 | 0.00 | 82 | 1010.9 |
| 20260509154555 | 12 | 208 | 4.8 | 12.9 | 0.00 | 0.00 | 0.00 | 82 | 1010.9 |
| 20260509154053 | 12 | 218 | 6.4 | 12.9 | 0.00 | 0.00 | 0.00 | 82 | 1011.0 |